weather.gov     
National Weather Service

Regional Weather Roundup
NWS Homepage
This page is being discontinued on March 12, 2014.
The same data is available at this site. Please update your bookmarks.
Thank you, and we apologize for the inconvenience.
Please send an email to SR-SRH.Webmaster@noaa.gov with any concerns.


Current Version
Previous Version:    01  02  03  04  05  06  07  08  09  10  11  12  13  14  15  16  17  18  19  20  21  22  23  24  25  26  27  28  29  30  
   31  32  33  34  35  36  37  38  39  40  41  42  43  44  45  46  47  48  49  50  51  52  53  54  
[Printable]
327
ASUS41 KBTV 170710
RWRBTV
VERMONT REGIONAL WEATHER ROUNDUP
NATIONAL WEATHER SERVICE BURLINGTON VT
300 AM EDT THU APR 17 2014

NOTE: "FAIR" INDICATES FEW OR NO CLOUDS BELOW 12,000 FEET WITH NO
SIGNIFICANT WEATHER AND/OR OBSTRUCTIONS TO VISIBILITY.

* THESE REPORTS ARE NOT UNDER NWS QUALITY CONTROL AND/OR DO NOT
  REPORT WEATHER SUCH AS PRECIPITATION AND FOG.

VTZ001>019-170800-
_____VERMONT_____


CITY           SKY/WX    TMP DP  RH WIND       PRES   REMARKS
BURLINGTON     SUNNY     23  17  78 E6        30.68R
MONTPELIER     SUNNY     17  13  84 CALM      30.68R
MORRISVILLE    SUNNY     16  13  88 E3        30.69R
ST. JOHNSBURY*   N/A     18  15  88 MISG      30.67R
LYNDONVILLE*   FAIR      16  12  86 CALM      30.66R
MIDDLEBURY*    FAIR      26  16  66 CALM      30.65R
RUTLAND*       SUNNY     21  16  79 E5        30.64R
SPRINGFIELD    SUNNY     26  13  57 CALM      30.67R
HIGHGATE*      FAIR      23  18  80 E5        30.68R
NEWPORT*       FAIR      18  12  79 CALM      30.67R
BENNINGTON     SUNNY     25  17  72 CALM      30.61R

_____LAKE CHAMPLAIN_____


CITY           SKY/WX    TMP DP  RH WIND       PRES   REMARKS
COLCHESTER RF*   N/A     30  21  69 S5          N/A
DIAMOND ISL*     N/A     32  16  51 N3          N/A

$$

NYZ007-026>031-035-052-083-170800-
_____NORTHERN NEW YORK_____


CITY           SKY/WX    TMP DP  RH WIND       PRES   REMARKS
PLATTSBURGH    SUNNY     22  18  85 CALM      30.67S
SARANAC LAKE   SUNNY     12   9  87 CALM      30.56R
MASSENA        SUNNY     22  19  89 CALM      30.67R
OGDENSBURG*    SUNNY     25  21  86 CALM      30.66R
POTSDAM*       SUNNY     23  19  86 CALM      30.65R
WATERTOWN      SUNNY     24  16  71 NE3       30.64R
FT DRUM        SUNNY     25  20  83 SE6       30.62R
ALBANY         MOSUNNY   28  17  63 CALM      30.65R
GLENS FALLS    SUNNY    N/A N/A N/A CALM      30.66R

$$
NHZ002-005-011-170800-
_____NEW HAMPSHIRE_____


CITY           SKY/WX    TMP DP  RH WIND       PRES   REMARKS
LEBANON        SUNNY     22  16  78 CALM      30.67R
KEENE          SUNNY     25  16  68 CALM      30.66R
MT WASHINGTON  MOSUNNY   19 -20  16 NW10        N/A  WCI   8
PLYMOUTH         N/A     23  17  77 CALM      30.67R
WHITEFIELD     MOSUNNY   14   9  80 CALM      30.65R

$$

_____REGIONAL QUEBEC LOCATIONS_____


CITY           SKY/WX    TMP DP  RH WIND       PRES   REMARKS
MONTREAL       MOSUNNY   27  18  69 SE2       30.68R
QUEBEC CITY    MOSUNNY   18  12  79 N3        30.69R
SHERBROOKE     SUNNY     12  12 100 E2        30.67R

_____REGIONAL ONTARIO LOCATIONS_____


CITY           SKY/WX    TMP DP  RH WIND       PRES   REMARKS
OTTAWA         MOSUNNY   23  18  80 S3        30.65R

______KEY______
VSB  - VISIBILITY IN MILES
WCI  - WIND CHILL INDEX
HX   - HEAT INDEX
$$
NNNN




U.S. Dept. of Commerce
NOAA National Weather Service
1325 East West Highway
Silver Spring, MD 20910
E-mail: w-nws.webmaster@noaa.gov
Page last modified: May 16, 2007
NATIONAL WEATHER SERVICE: for Safety, for Work, for Fun - FOR LIFE